This is the latest recevied weather packets stored in our database for station/object KB2EAR-13. If no packets are shown the sender has not sent any weather packets the latest 10 day(s).
| Time | Temp. | Humidity | Pressure | Rain* | Wind** | Luminosity | Snow |
|---|---|---|---|---|---|---|---|
| 1778023818 | 26.11° C | 42% | 1009.8 hPa | 0 mm | - | - | - |
| 1778023560 | 26.11° C | 42% | 1009.7 hPa | 0 mm | - | - | - |
| 1778023518 | 26.11° C | 42% | 1009.7 hPa | 0 mm | - | - | - |
| 1778022918 | 26.67° C | 40% | 1009.6 hPa | 0 mm | - | - | - |
| 1778020818 | 27.22° C | 35% | 1009.2 hPa | 0 mm | - | - | - |
| 1778019918 | 27.22° C | 34% | 1009.4 hPa | 0 mm | - | - | - |
| 1778019318 | 27.22° C | 34% | 1009.3 hPa | 0 mm | - | - | - |
| 1778019018 | 27.22° C | 33% | 1009.2 hPa | 0 mm | - | - | - |
| 1778018509 | 27.22° C | 33% | 1009.1 hPa | 0 mm | - | - | - |
| 1778018118 | 27.78° C | 32% | 1009 hPa | 0 mm | - | - | - |
| 1778017518 | 27.78° C | 31% | 1008.7 hPa | 0 mm | - | - | - |
| 1778016918 | 27.78° C | 30% | 1008.9 hPa | 0 mm | - | - | - |
| 1778016618 | 27.78° C | 31% | 1008.8 hPa | 0 mm | - | - | - |
| 1778014818 | 28.33° C | 31% | 1008.8 hPa | 0 mm | - | - | - |
| 1778012363 | 28.33° C | 35% | 1008.7 hPa | 0 mm | - | - | - |
| 1778012363 | 28.33° C | 35% | 1008.7 hPa | 0 mm | - | - | - |
| 1778009717 | 28.33° C | 36% | 1009.1 hPa | 0 mm | - | - | - |
| 1778009417 | 28.33° C | 36% | 1009.1 hPa | 0 mm | - | - | - |
| 1778009117 | 28.33° C | 36% | 1009.4 hPa | 0 mm | - | - | - |
| 1778008817 | 28.33° C | 36% | 1009.3 hPa | 0 mm | - | - | - |
| 1778008517 | 28.33° C | 39% | 1009.3 hPa | 0 mm | - | - | - |
| 1778008217 | 28.33° C | 38% | 1009.4 hPa | 0 mm | - | - | - |
| 1778006417 | 27.78° C | 39% | 1010 hPa | 0 mm | - | - | - |
| 1778006117 | 27.78° C | 38% | 1010.1 hPa | 0 mm | - | - | - |
| 1778005817 | 27.78° C | 40% | 1010.1 hPa | 0 mm | - | - | - |
* Rain latest hour (hover to see other rain measurements)
** Current wind speed in m/s (hover to see current wind gust speed)